Location: Ambrosina
(19.9365°S, 43.9833°W)
Time: 09:04:02
(UTC+00:00)

Cosmos 2151 - Pass Details

Date: 11 May 2021
Orbit: 580 x 602 km, 82.5° (Epoch: 22 June)

Event Time Altitude Azimuth Distance (km) Brightness Sun altitude
Rises 20:56:15 0° 26° (NNE) 2,788 6.3 -7.0°
Reaches altitude 10° 20:58:54 10° 43° (NE) 1,894 5.3 -7.6°
Maximum altitude 21:01:55 19° 90° (E) 1,391 4.3 -8.2°
Drops below altitude 10° 21:04:57 10° 136° (SE) 1,908 5.0 -8.9°
Enters shadow 21:06:14 - 146° (SE) 2,319 5.5 -9.2°
